Regional Weather Roundup
Issued by NWS Northern Indiana

Home | Current Version | Previous Version | Graphics & Text | Print | Product List | Glossary On
Versions: 1 2 3 4 5 6 7 8 9 10 11 12 13 14 15 16 17 18 19 20 21 22 23 24 25 26 27 28 29 30 31 32 33 34 35 36 37 38 39 40 41 42 43 44 45 46 47 48 49 50
000
ASUS43 KIWX 032300
RWRIWX

KIWX WEATHER ROUNDUP
NATIONAL WEATHER SERVICE NORTHERN INDIANA
700 PM EDT TUE MAY 03 2016

NOTE: "FAIR" INDICATES FEW OR NO CLOUDS BELOW 12,000 FEET WITH NO
SIGNIFICANT WEATHER AND/OR OBSTRUCTIONS TO VISIBILITY.

* THESE STATIONS ARE NOT UNDER NWS QUALITY CONTROL. THEY ALSO MAY NOT
  REPORT WEATHER SUCH AS PRECIPITATION OR FOG.

INZ001>027-040000-
NORTHERN INDIANA

CITY           SKY/WX    TMP DP  RH WIND       PRES   REMARKS
GARY*          PTSUNNY   66  46  48 W14       29.82F
SOUTH BEND     PTSUNNY   63  36  36 NW9       29.82F
ELKHART*       MOSUNNY   64  41  42 W10G16    29.82F
GOSHEN         MOSUNNY   60  40  47 W8        29.81F
ANGOLA*        MOSUNNY   63  39  42 SW5       29.81F
FORT WAYNE     MOSUNNY   60  44  55 W8        29.84F
PERU/GRISSOM   SUNNY     61  41  48 SW5       29.83F

$$
INZ028>050-040000-
CENTRAL INDIANA

CITY           SKY/WX    TMP DP  RH WIND       PRES   REMARKS
LAFAYETTE      PTSUNNY   60  41  49 W5        29.85S
KOKOMO*        SUNNY     63  43  48 W6        29.85S
MUNCIE*        MOSUNNY   61  44  53 W9        29.86F
INDIANAPOLIS   MOSUNNY   62  41  46 VRB3      29.86F

$$
MIZ043>046-050>051-056>058-064>065-071>073-077>080-040000-
SOUTHWEST LOWER MICHIGAN

CITY           SKY/WX    TMP DP  RH WIND       PRES   REMARKS
BATTLE CREEK   MOSUNNY   63  32  31 W10       29.80F
BENTON HARBOR  CLOUDY    62  37  39 SW9       29.80F
COLDWATER*     PTSUNNY   63  34  33 NW7       29.80F
HILLSDALE*     CLOUDY    61  29  29 W8        29.81S
HOLLAND        MOSUNNY   61  36  39 SW13      29.78F
GRAND RAPIDS   PTSUNNY   64  35  34 W15       29.77F
KALAMAZOO      PTSUNNY   62  34  35 W12       29.80F
STURGIS*       MOSUNNY   63  34  34 NW7       29.80F
THREE RIVERS*  FAIR      63  33  32 W10       29.81F

$$
OHZ001>008-015>018-024>025-040000-
NORTHWEST OHIO

CITY           SKY/WX    TMP DP  RH WIND       PRES   REMARKS
DEFIANCE       PTSUNNY   60  40  47 SW5       29.83S
FINDLAY        CLOUDY    62  38  40 W7        29.82S
TOLEDO EXPRESS PTSUNNY   61  37  41 W12       29.81S
TOLEDO METCALF MOSUNNY   58  46  64 SE6       29.82F
LIMA           CLOUDY    57  46  66 W8        29.84S

$$
AND FOR LAKE MICHIGAN COASTAL AND OPEN LAKE BUOY OBSERVATIONS

STATION/POSITION TEMP    WIND        PRES    VSBY  WAVE
                 AIR SEA DIR/SP/G                  HT/PER
                 (F)     (DEG/KT/KT) (MB)    (MI)  (FT/S)
CALUMET HARBOR    67                 1009.1F
MICHIGAN CITY     61     170/  1/  1   N/A
BURNS HARBOR      64     250/  5/  7 1010.5F
SAINT JOSEPH      59     180/ 10/ 12 1010.8S
SOUTH LAKE BUOY   46 42  170/ 12/ 14 1008.5          1/ 3
4 MI NW BRIDGMAN  54 51                N/A           0

$$
&&




USA.gov is the U.S. government's official web portal to all federal, state and local government web resources and services.